Theta_e
311 313 315 315 318 321 322 321 319 318 316 314 315 317 317 317 317 315 316 316 315 315 315 313 314 315 315 317 319 325 333 333 333 334 336 338 338 338 337 337 340 340 341 339 335 337 339 340 342 341 340 339 337 335 334 333 332 329 322 319 319 317 316 316 315 315 313 314 317 317 318 318 318 319 319 319 317 318 324 326 326 326 326 325 327 328
312 313 317 319 322 323 322 322 320 316 316 315 316 318 317 317 317 316 316 317 316 314 315 315 314 314 318 322 319 321 330 331 331 333 335 337 337 336 336 337 339 340 340 337 334 336 339 340 341 341 340 339 337 335 334 332 332 329 321 317 316 315 316 315 314 314 314 315 316 317 319 320 319 320 320 320 316 314 319 325 325 325 325 324 325 326
313 316 318 318 318 315 316 322 321 319 318 318 318 317 317 318 317 317 321 324 320 315 316 317 315 317 324 327 321 320 326 329 330 333 335 336 336 336 336 336 338 339 339 336 335 337 338 339 340 340 339 338 335 334 333 332 332 329 321 316 315 315 315 314 313 314 315 317 318 318 320 321 320 320 320 320 316 312 314 321 324 325 325 324 325 325
314 319 318 315 316 314 315 321 322 320 319 320 318 315 317 318 315 316 322 327 325 320 319 321 321 326 331 327 321 317 319 325 329 333 336 336 336 336 336 337 337 338 337 335 336 335 336 339 338 337 336 335 333 333 332 332 332 327 319 314 314 314 313 313 315 316 317 318 319 319 321 321 320 320 321 321 318 316 316 317 319 320 322 323 324 324
315 316 314 316 319 318 316 318 319 318 320 327 324 316 318 319 315 316 321 327 333 328 326 329 327 328 329 326 322 317 317 324 327 331 334 334 335 335 335 336 337 338 335 334 335 334 335 336 335 334 334 334 333 333 332 331 331 325 316 313 314 314 314 316 317 317 318 319 320 320 320 321 321 321 322 321 319 321 321 319 318 318 318 317 316 316
314 313 311 314 319 319 317 318 321 319 319 327 328 324 321 320 319 319 322 327 331 326 322 324 321 322 328 328 325 323 322 324 326 329 332 332 333 334 334 335 335 335 334 332 334 333 334 334 332 333 334 333 332 333 332 331 329 321 315 314 314 314 315 317 318 318 319 319 318 319 318 318 319 319 321 319 316 318 321 321 321 320 317 314 311 310
316 314 313 315 317 319 318 317 321 321 318 319 326 330 323 319 319 320 324 325 323 321 320 322 324 325 329 327 323 324 322 324 325 328 330 330 331 332 332 333 333 333 332 332 332 332 333 333 332 333 333 333 332 332 331 330 326 318 314 314 314 313 314 316 319 319 319 319 318 317 316 316 316 318 319 315 310 311 315 317 317 316 315 314 313 313
317 316 318 317 316 319 319 318 322 320 318 319 326 329 322 319 318 321 327 323 320 322 323 329 330 324 326 326 322 322 319 320 325 328 328 327 329 330 330 331 332 333 333 332 332 332 332 332 332 332 332 332 332 331 331 328 322 317 315 315 314 314 313 314 317 319 319 320 319 318 318 318 317 319 317 310 306 307 308 310 311 312 314 315 315 316
317 316 319 319 317 317 318 322 323 317 316 324 326 322 318 319 321 326 330 325 323 321 320 331 327 317 328 335 325 321 317 318 321 325 327 326 326 328 328 329 331 333 334 332 333 332 333 332 332 331 331 332 331 331 330 326 321 318 317 316 314 315 314 313 316 319 319 320 319 319 319 319 319 319 313 307 307 307 306 306 307 310 314 315 316 316
317 314 316 317 317 318 320 322 321 317 318 322 321 318 319 322 325 330 329 325 328 323 319 330 326 316 329 340 331 319 316 321 323 323 322 322 325 327 327 329 329 331 332 332 332 332 331 332 331 331 331 331 331 331 330 326 323 322 320 318 316 317 317 314 314 317 319 320 320 319 319 319 319 316 310 307 307 307 307 307 306 307 310 312 313 315
315 313 314 315 315 317 319 317 315 315 317 316 316 318 319 322 327 332 333 327 324 323 322 329 327 318 323 334 333 322 316 321 324 322 319 318 323 327 326 327 328 328 330 331 332 331 330 330 331 331 330 331 331 330 329 326 326 325 323 321 319 319 321 318 314 315 317 319 320 320 318 317 316 312 308 307 308 307 307 306 305 306 308 310 312 314
315 313 315 315 314 314 314 314 311 311 314 316 319 320 317 321 325 329 332 326 321 323 326 329 325 318 321 327 327 325 324 323 320 322 321 317 319 325 327 326 327 327 329 330 330 330 330 330 330 331 331 331 330 330 329 327 326 326 325 324 322 322 325 323 316 315 317 320 321 321 317 314 312 310 308 308 308 308 307 306 306 305 306 308 311 313
318 316 316 314 313 313 313 315 312 312 316 317 320 321 318 319 321 324 326 323 323 324 323 326 322 316 324 328 323 324 326 322 317 317 318 314 316 324 327 326 326 326 327 328 328 329 329 330 331 331 331 331 330 330 329 327 326 326 325 325 324 326 326 323 317 316 318 320 321 320 315 311 311 309 308 308 308 308 307 305 305 305 305 306 307 309
318 320 317 313 314 314 313 316 314 315 317 316 319 321 319 319 318 321 322 318 321 322 319 322 319 317 325 324 321 323 320 316 313 313 315 314 316 323 326 326 326 326 326 327 327 327 328 328 330 330 330 330 329 329 328 327 327 326 326 326 326 328 328 323 319 317 317 319 320 320 314 311 312 310 308 308 308 309 307 305 304 304 305 305 305 306
318 320 320 317 314 313 313 315 317 321 318 314 317 317 317 322 321 320 321 319 319 321 320 318 316 321 323 316 318 319 314 314 316 317 319 319 321 325 326 326 326 326 326 326 326 326 326 327 327 328 328 328 328 328 327 327 327 326 326 326 327 329 328 323 321 319 318 319 320 319 314 313 314 313 311 309 308 309 306 305 305 304 305 305 305 305
314 318 323 318 312 312 312 312 314 318 315 312 313 313 315 321 325 320 316 321 325 323 320 317 318 327 322 316 318 316 314 317 318 320 321 321 323 325 325 325 325 325 326 325 325 325 325 325 325 325 326 326 326 326 326 326 326 327 326 327 329 330 327 323 322 321 320 319 320 317 314 314 315 315 314 310 309 308 306 305 305 305 305 305 305 305
313 317 321 315 312 313 312 311 311 312 314 314 311 314 315 315 324 323 314 319 325 322 320 318 318 325 321 316 318 317 320 323 320 320 321 321 323 324 324 325 325 326 326 326 325 325 325 325 325 325 325 325 326 325 326 326 325 326 328 329 330 330 328 325 323 321 319 318 317 315 315 315 316 317 315 311 309 308 306 306 307 306 306 306 306 306
318 319 320 315 313 313 309 309 312 309 312 316 313 314 315 311 319 325 321 321 320 318 324 319 315 319 318 318 321 319 320 323 322 322 320 320 323 323 323 325 325 326 326 326 326 325 325 325 324 325 325 325 325 325 325 325 325 326 329 331 331 330 328 325 322 321 319 317 315 314 316 316 316 317 318 313 310 308 307 307 307 307 307 307 307 307
317 318 320 317 313 313 312 312 317 313 309 312 312 311 314 315 318 318 319 321 317 316 321 317 315 317 314 316 320 319 319 320 320 321 321 321 321 321 323 324 324 325 325 326 325 323 324 324 323 324 324 324 324 325 325 325 325 325 327 329 330 330 328 324 321 320 320 317 315 315 315 315 315 316 318 316 311 309 307 307 308 308 308 308 307 307
319 317 319 318 313 312 315 317 319 317 313 312 313 312 314 321 321 315 316 319 320 319 317 316 317 317 317 319 319 319 321 319 317 320 322 320 319 320 322 323 323 324 323 324 323 322 321 320 321 321 321 321 322 324 327 327 326 325 325 327 329 330 330 327 322 320 319 318 316 316 315 315 316 316 318 318 314 310 308 307 308 308 308 308 308 307
319 313 316 322 316 312 316 317 313 314 314 312 316 316 312 313 314 313 313 314 320 323 322 320 317 317 323 323 318 318 320 318 317 320 320 317 318 320 321 321 323 323 322 321 320 319 318 318 319 319 319 320 321 321 324 327 328 327 325 326 327 329 329 328 324 320 319 318 317 317 315 314 316 317 318 319 316 312 310 309 310 311 311 311 310 309
318 316 323 327 319 313 314 313 311 311 310 310 314 313 311 311 313 315 313 312 319 324 324 323 318 318 324 320 315 318 317 314 315 317 317 316 317 320 320 322 323 323 322 321 320 321 322 323 322 320 320 320 320 320 321 323 326 327 327 327 326 327 328 328 325 322 321 320 318 317 315 315 317 317 318 319 317 314 312 311 312 313 314 314 313 313
321 325 326 321 315 313 311 309 310 309 308 311 312 311 315 316 317 323 322 318 318 316 316 321 319 322 325 317 313 316 314 312 313 314 315 316 318 320 321 323 323 324 324 323 323 325 325 325 323 322 322 321 322 323 322 322 324 326 327 327 326 326 326 326 325 324 323 322 319 319 318 316 317 318 319 319 318 316 314 312 312 313 314 315 315 315
320 322 320 318 317 316 313 312 312 310 311 313 311 311 314 311 315 326 326 324 322 314 315 320 318 321 323 315 310 311 312 313 313 315 316 316 318 319 320 322 323 323 324 323 324 325 324 325 323 323 323 323 323 324 324 324 324 324 326 326 326 326 325 325 325 324 324 322 320 320 320 318 316 317 319 320 319 317 316 314 313 313 314 315 316 316
315 316 317 317 315 312 314 317 317 314 313 312 310 312 311 309 317 321 317 324 324 312 316 323 319 318 317 311 309 310 312 314 313 315 317 317 319 319 320 321 322 322 323 323 324 324 324 325 324 324 324 323 324 325 325 325 325 324 325 325 326 326 325 325 325 325 324 323 321 320 321 319 316 316 319 321 320 318 317 316 315 315 315 315 316 316
315 318 323 322 316 314 317 320 320 315 311 311 311 312 312 313 316 314 314 326 323 312 318 325 320 317 314 311 311 310 312 314 313 313 317 318 318 319 319 320 320 321 321 321 321 321 322 323 323 323 323 322 322 322 323 324 324 324 325 325 326 326 325 325 325 325 324 323 322 321 320 319 317 316 319 321 320 318 317 317 316 316 316 316 317 316
322 319 322 325 321 319 320 317 315 313 312 311 310 310 313 315 317 320 321 323 320 317 318 317 315 317 314 311 311 310 310 312 311 311 314 316 317 318 318 319 319 319 319 317 316 316 317 319 321 322 321 320 318 318 320 322 323 324 324 324 325 325 324 324 324 325 324 323 322 320 319 319 318 317 318 320 319 318 317 317 316 316 316 316 317 317
328 318 314 318 315 313 314 311 308 309 308 308 309 311 313 316 321 327 322 313 315 322 317 310 314 318 313 310 310 310 309 310 308 309 311 313 314 315 316 318 318 318 317 316 314 314 315 318 320 322 322 321 320 318 318 319 321 323 324 324 324 324 323 323 323 324 324 323 322 321 320 320 319 319 319 319 319 318 317 317 317 317 317 317 317 317
327 316 309 312 311 308 310 308 306 308 307 307 311 313 313 315 318 318 313 310 316 323 315 309 312 313 308 307 308 307 307 308 308 308 310 311 313 314 315 316 316 316 315 314 315 315 316 318 320 321 322 322 322 321 320 319 320 322 323 324 324 324 323 323 323 323 323 322 322 322 321 320 320 320 319 319 319 318 317 317 317 317 317 316 316 317
319 316 311 313 312 309 308 307 306 307 308 309 311 310 309 312 313 313 310 309 312 314 309 308 310 309 306 305 306 305 305 306 307 308 310 310 311 313 314 313 312 313 313 313 313 314 314 315 316 317 318 319 319 320 320 320 321 322 323 323 323 323 322 322 322 322 322 321 321 320 319 319 320 319 318 318 318 317 316 317 317 316 316 316 315 315
315 314 315 320 317 309 308 307 306 308 309 310 311 309 309 310 311 312 310 309 310 308 306 308 310 308 305 303 304 303 303 304 305 306 308 308 308 310 311 310 310 310 310 310 311 311 312 312 312 313 314 315 315 315 315 316 318 319 320 321 321 321 321 322 322 322 322 321 321 319 318 318 319 318 317 317 316 316 317 317 317 316 315 316 315 314
317 313 314 321 317 309 308 307 307 309 309 310 312 310 310 312 311 309 307 308 309 308 307 310 310 307 305 303 303 302 302 302 302 303 304 305 307 308 308 308 308 308 308 309 309 310 310 310 310 310 310 311 312 311 311 311 312 313 315 316 317 318 319 320 320 321 321 320 320 319 318 317 317 317 317 316 316 318 319 318 317 316 316 316 316 315
321 317 313 317 316 310 309 308 311 314 311 311 312 308 306 307 306 305 304 304 305 307 309 310 307 304 303 303 303 302 301 301 301 301 302 302 304 306 307 306 305 305 306 306 307 308 308 308 308 308 308 309 309 309 309 308 309 309 310 311 312 313 314 315 316 317 318 320 320 319 318 318 318 318 318 318 318 319 319 317 317 317 317 316 316 317
319 321 316 316 317 311 310 312 314 315 312 310 308 306 306 306 304 304 304 302 303 305 306 305 304 304 303 303 303 302 301 300 301 300 300 300 301 303 303 302 302 301 302 304 305 306 307 307 307 307 307 308 308 307 307 307 307 307 308 308 309 309 310 310 310 311 313 315 318 318 318 318 319 319 319 319 318 318 318 317 316 315 314 314 315 315
316 318 314 317 319 312 311 314 314 311 310 306 303 304 305 303 301 302 302 302 303 303 303 303 303 303 302 301 302 301 300 300 300 299 300 300 300 300 300 299 300 300 300 301 303 305 306 306 306 306 307 307 307 307 306 306 307 307 307 307 307 307 308 308 308 309 310 311 313 313 313 314 315 315 317 317 317 316 315 313 313 313 313 313 313 314
315 316 312 312 314 309 309 313 312 307 305 304 303 304 303 302 303 304 303 302 302 303 303 302 302 300 300 301 301 301 300 300 299 299 298 298 298 299 299 299 299 300 300 300 300 301 303 304 305 305 306 306 306 306 306 306 306 306 306 306 306 307 306 307 307 308 309 309 309 309 309 309 310 311 314 315 315 314 312 312 312 312 312 312 313 313
312 316 312 309 309 310 310 308 306 305 305 304 305 304 302 302 304 305 305 302 300 301 300 301 301 299 298 299 301 301 301 302 301 299 297 298 298 298 298 299 299 300 300 300 300 300 301 301 302 303 304 306 306 306 306 306 306 306 306 305 306 306 306 306 307 307 307 308 308 308 308 308 308 310 313 314 312 310 310 311 311 311 310 311 311 311
308 310 311 308 308 311 311 306 304 307 307 307 308 306 302 301 301 302 304 302 299 298 298 299 300 298 297 298 300 301 302 305 304 300 297 297 298 298 299 299 299 300 301 301 301 301 301 301 301 301 302 303 305 306 306 306 305 305 305 305 305 305 305 305 306 306 306 307 307 307 307 308 309 309 310 310 309 309 308 307 307 307 307 308 308 308
308 309 312 312 308 308 310 309 307 308 307 306 306 304 300 300 299 301 306 304 299 297 297 297 297 296 296 297 298 299 303 306 305 300 297 297 298 298 298 299 299 299 299 299 299 300 300 300 301 301 301 301 302 303 303 304 305 305 306 306 306 305 305 305 305 305 306 306 306 306 307 308 308 309 309 309 308 308 307 304 303 303 304 304 304 304
310 311 312 311 309 308 309 308 306 305 305 304 304 302 299 298 299 303 309 306 298 296 297 297 296 297 297 297 297 298 301 303 302 298 297 297 298 297 298 298 298 298 298 298 298 297 297 298 298 300 301 301 301 301 301 302 303 304 305 306 306 306 306 305 305 305 305 305 305 306 306 307 308 308 308 308 308 307 306 304 303 303 302 302 302 302
308 310 308 307 308 309 310 308 304 304 304 302 302 300 298 298 301 305 308 303 297 296 298 297 297 297 297 297 298 298 298 298 298 297 297 297 298 297 298 298 298 298 298 298 297 297 297 297 297 297 298 299 300 300 301 301 302 302 303 304 305 306 306 305 305 305 305 305 305 305 305 306 307 308 308 308 307 307 306 305 304 304 303 303 303 303
306 307 306 305 306 307 307 305 303 304 302 299 299 299 298 301 305 304 301 298 296 297 298 297 297 298 297 297 297 297 297 297 297 297 297 297 297 297 297 297 298 298 297 297 297 297 297 297 297 297 296 297 298 299 299 300 301 301 302 302 303 304 305 304 304 305 306 306 305 305 305 305 306 307 307 307 307 307 307 306 305 305 305 305 305 304
303 305 305 303 303 304 304 304 304 304 301 298 299 300 299 301 302 299 297 297 297 297 297 297 298 297 297 297 297 297 297 297 297 297 297 297 297 297 297 297 297 297 297 297 297 297 297 297 297 297 297 296 297 297 298 299 299 300 301 302 302 302 303 303 303 304 304 305 305 306 306 305 305 306 306 306 306 306 306 306 306 306 306 306 306 306
301 305 306 303 302 303 304 302 301 300 298 297 299 300 298 298 298 297 297 298 297 297 297 298 298 297 297 298 297 297 297 297 297 297 297 297 297 296 296 296 296 296 296 296 296 296 296 297 296 296 296 296 296 297 297 297 298 298 299 301 301 302 302 302 302 302 303 303 304 305 305 305 305 305 305 305 304 304 305 305 306 307 307 307 307 307
300 302 303 301 299 300 301 299 298 297 297 297 298 298 298 298 297 297 298 297 297 298 297 297 298 298 298 298 297 297 297 297 297 297 297 297 297 296 296 296 296 296 296 296 296 296 296 296 296 296 296 296 296 297 297 297 297 298 298 299 300 301 301 301 301 302 302 302 303 303 304 304 305 305 305 305 304 304 304 304 305 305 306 306 306 305
298 298 299 299 298 298 298 298 297 297 298 297 298 298 298 298 297 297 297 297 297 297 297 297 298 297 297 297 297 297 297 297 297 297 297 296 296 296 296 296 296 296 296 296 296 296 296 296 296 296 296 296 296 297 297 297 297 297 297 297 298 299 300 301 301 302 302 302 302 302 303 303 304 304 304 305 305 304 304 304 304 304 304 304 304 303
298 297 298 298 299 299 299 297 297 298 298 297 298 298 297 298 297 297 297 297 297 297 297 297 297 297 297 297 297 297 297 297 296 296 296 296 296 296 296 296 296 295 295 295 295 295 295 295 295 296 296 296 296 296 297 297 297 297 297 297 297 298 298 299 300 301 301 302 302 301 302 302 302 303 303 304 304 304 304 304 304 304 304 304 303 303
298 298 298 299 300 300 299 297 296 297 297 297 298 298 297 297 297 297 297 297 297 297 297 297 297 297 297 297 297 297 296 296 296 296 296 296 296 295 295 295 295 294 294 294 294 294 294 294 295 295 296 296 296 297 297 297 297 297 297 297 297 297 297 298 299 300 300 301 301 302 302 302 302 302 302 303 303 303 303 303 303 304 304 304 303 303
297 298 297 298 299 298 297 297 296 296 297 297 297 297 297 297 297 297 297 297 297 297 297 297 297 297 297 296 297 296 296 296 296 295 295 295 295 294 294 294 293 293 293 293 293 293 293 293 294 294 294 295 295 296 296 296 296 297 297 297 297 297 297 297 297 298 299 300 300 301 302 302 302 302 302 302 302 303 303 303 303 303 303 303 303 302
297 298 296 298 300 301 299 297 296 296 297 297 296 297 297 297 297 297 297 297 297 297 297 296 296 296 296 296 296 296 296 295 295 294 294 294 293 293 293 292 292 292 292 292 293 293 292 293 293 293 293 294 294 294 295 296 296 296 296 296 297 297 297 297 297 297 298 298 299 300 301 301 302 302 302 302 302 303 303 303 303 303 303 302 302 302
297 297 297 300 302 301 299 297 296 297 297 297 296 297 297 297 297 297 297 297 297 296 296 296 296 296 296 295 295 295 294 294 293 293 292 292 292 292 292 292 292 292 291 291 292 292 292 292 292 292 292 292 292 293 293 294 295 295 295 296 296 296 297 298 298 297 297 297 298 298 299 299 300 301 301 302 302 302 302 303 303 302 302 302 302 302
Wind_Speed
3 2 1 4 6 7 7 7 8 5 5 4 2 3 4 4 6 6 7 6 3 4 5 7 8 9 6 3 7 17 19 15 15 16 18 21 23 25 27 29 32 34 33 31 30 30 29 30 31 30 29 28 27 27 26 25 22 19 16 16 16 15 15 13 11 11 9 8 7 7 6 4 2 1 1 2 2 2 4 6 8 10 10 9 9 10
3 3 6 9 10 9 5 5 5 3 3 3 3 4 4 3 6 7 6 7 1 5 3 2 7 7 6 2 4 14 14 11 15 18 19 23 23 25 28 30 33 33 31 31 31 32 31 32 32 31 30 30 29 28 28 26 23 20 18 18 18 18 17 14 13 12 10 8 6 6 7 6 3 1 3 4 4 2 4 6 7 8 9 9 11 12
2 3 10 10 7 4 2 5 6 3 3 3 2 2 3 3 5 7 5 6 4 2 3 2 7 5 6 0 2 8 14 17 23 26 27 29 26 25 28 30 33 32 31 33 34 34 33 33 34 33 32 31 29 29 30 27 24 23 21 20 22 21 18 17 16 14 12 10 8 6 7 7 4 2 3 4 5 3 3 7 8 7 7 8 9 11
1 6 9 5 6 4 3 3 6 1 1 2 3 2 3 4 2 4 5 7 5 0 2 5 6 4 6 2 1 6 11 17 23 24 26 30 30 32 34 35 36 35 34 35 36 36 34 35 35 34 34 33 31 32 33 31 28 25 24 24 25 23 19 18 18 16 14 13 11 9 8 7 5 3 4 4 3 2 3 6 8 9 9 8 8 9
7 9 5 3 6 6 4 3 2 1 3 2 5 5 3 3 3 4 5 6 6 4 3 6 5 4 6 3 1 1 2 10 18 19 19 23 27 27 30 35 37 38 38 38 38 37 37 38 38 36 36 35 35 35 35 34 30 26 26 27 26 23 20 19 18 17 16 15 14 12 11 10 8 7 7 6 5 6 6 6 8 9 10 10 10 10
9 9 3 1 2 6 4 5 4 6 3 4 5 7 7 5 4 5 4 5 5 5 3 4 4 3 5 4 4 2 2 5 10 14 18 23 23 21 26 32 35 36 38 40 40 38 38 40 39 37 37 37 37 37 35 33 29 28 29 28 26 24 22 19 18 17 16 15 13 10 10 10 9 9 8 6 7 9 10 10 10 10 10 10 10 9
5 5 1 4 5 5 5 5 5 7 5 2 5 7 7 5 2 4 2 4 2 1 3 3 5 3 5 1 5 4 3 6 6 7 13 20 22 23 28 31 32 34 35 37 39 39 39 39 39 38 39 39 38 36 35 31 29 30 31 29 26 24 23 21 18 18 17 16 13 9 7 6 6 8 8 6 7 9 10 11 11 11 10 9 9 8
3 4 4 1 4 5 5 5 6 8 7 3 5 5 6 5 3 3 4 5 2 2 3 5 5 3 3 3 6 4 4 6 5 6 7 14 21 23 25 27 32 35 37 38 39 39 39 39 38 39 40 39 37 36 34 30 30 32 31 28 27 25 24 23 20 18 18 17 14 11 10 8 8 8 7 8 9 8 8 9 10 10 10 10 9 9
1 3 4 1 3 4 5 6 7 9 5 6 5 5 5 4 3 2 6 4 1 2 3 6 3 3 3 5 5 3 4 4 7 9 8 13 21 23 24 27 32 36 39 40 40 40 40 39 38 37 38 38 36 35 34 31 29 30 30 28 27 26 25 25 22 19 18 18 15 13 12 12 11 10 8 10 11 9 8 7 8 9 11 11 11 10
3 5 5 4 4 4 6 5 8 11 5 4 5 5 4 4 4 4 5 3 3 4 2 6 2 2 3 5 4 2 2 4 7 7 8 14 22 25 26 28 31 34 36 37 37 38 39 39 38 37 37 37 36 35 34 32 29 28 28 28 28 28 26 26 24 21 19 20 18 15 14 14 14 12 12 13 12 10 8 7 7 8 10 10 10 9
5 4 2 4 5 6 6 4 7 9 5 2 4 5 5 5 5 4 3 4 4 2 5 6 2 3 1 5 3 2 2 4 4 4 6 12 19 25 27 28 29 31 34 36 35 34 35 37 38 38 37 37 36 36 35 33 30 29 28 28 29 29 28 27 26 23 21 21 20 17 16 16 15 14 14 15 13 10 9 8 8 8 9 9 9 9
6 3 2 4 7 5 3 2 2 1 2 3 3 4 3 2 4 4 4 4 4 2 6 5 2 5 2 4 4 4 5 5 5 6 7 11 20 28 29 28 29 31 33 34 32 30 31 34 36 37 36 35 36 36 36 34 32 31 30 29 29 30 29 29 28 26 23 22 21 19 17 16 16 14 14 14 11 10 10 9 9 10 10 10 10 11
4 4 3 5 5 4 5 2 0 4 6 5 4 5 4 1 2 1 3 1 2 4 4 3 1 3 3 6 5 6 8 6 6 9 10 13 22 30 30 28 27 28 30 30 29 28 29 32 35 35 35 35 35 35 35 35 34 32 31 31 31 31 31 31 30 28 26 24 23 20 17 16 16 14 13 13 11 10 10 9 9 10 11 11 11 11
3 5 4 3 4 4 6 4 2 1 1 4 4 4 4 3 2 1 3 1 1 3 2 3 2 0 3 4 4 7 8 6 4 6 10 13 19 25 26 24 24 24 25 26 26 26 28 30 33 34 35 34 33 33 34 34 34 33 33 33 33 33 33 33 33 31 28 27 25 20 17 16 16 14 12 12 12 10 10 9 9 10 10 10 11 11
2 4 3 3 2 3 6 6 6 5 3 3 5 6 4 4 4 3 3 3 2 3 2 3 1 2 2 2 5 7 3 9 8 4 8 10 15 21 22 20 20 20 19 20 22 23 25 26 28 30 31 32 32 31 32 34 34 34 35 36 36 36 36 36 35 33 31 29 25 20 17 16 16 14 12 12 11 10 11 12 12 12 12 11 11 11
3 3 6 5 3 2 3 3 5 7 2 2 2 5 2 4 5 2 3 5 4 2 1 1 2 3 3 3 7 5 6 12 11 7 13 16 17 20 20 19 18 17 15 14 15 15 17 19 21 23 25 27 28 29 32 34 35 36 37 38 38 38 38 38 36 34 31 26 21 17 17 17 17 15 12 12 13 12 13 16 16 16 15 14 13 13
2 3 5 5 2 2 3 2 2 3 3 1 2 3 4 3 7 5 1 1 4 3 1 1 2 4 2 3 8 8 6 8 9 8 10 15 20 22 21 20 20 18 16 13 11 12 15 16 16 18 20 22 24 27 31 34 36 37 38 40 40 39 40 40 40 37 31 26 21 19 21 20 19 18 14 13 14 15 18 19 18 18 17 16 15 15
4 2 6 2 3 2 1 5 4 2 4 3 2 5 2 2 5 5 2 3 5 1 3 2 1 4 3 1 5 8 5 5 5 5 7 11 16 21 21 21 20 19 18 16 14 16 17 17 17 18 19 20 22 23 26 30 34 36 37 38 39 39 39 40 39 37 33 29 24 23 25 23 20 21 19 14 14 17 21 22 21 20 19 18 17 16
4 1 7 2 2 5 4 7 4 6 2 4 4 4 4 2 1 2 3 2 2 1 2 3 2 2 1 1 3 4 3 2 2 1 4 8 11 18 23 23 21 19 19 19 20 20 20 18 18 17 16 16 17 18 20 22 27 32 35 37 38 40 40 39 36 35 33 32 27 24 26 26 22 23 25 18 15 19 23 23 22 21 20 19 18 17
3 3 5 4 2 3 5 5 1 5 5 3 2 3 2 3 4 2 3 3 4 3 2 1 3 2 3 4 4 5 8 6 4 4 2 4 8 13 19 22 21 19 20 21 22 21 19 18 16 14 11 11 11 12 13 15 21 28 32 35 37 40 42 40 38 37 37 36 30 25 28 30 26 26 29 25 17 18 23 24 23 21 20 19 18 17
3 3 3 5 3 2 2 0 3 2 2 3 3 4 3 2 2 2 2 2 4 5 3 2 1 4 5 4 4 6 9 8 6 5 2 1 4 7 11 15 17 17 17 18 18 17 17 16 13 10 8 7 7 6 6 7 12 19 26 31 33 36 39 38 35 36 37 34 30 27 30 31 27 26 30 30 23 18 21 23 22 21 19 18 17 17
2 3 3 1 3 2 1 2 1 3 3 4 3 1 0 2 3 4 1 1 2 4 4 5 3 5 6 2 3 5 7 8 8 9 4 3 6 7 9 12 15 16 15 15 16 16 16 13 10 8 6 4 3 3 2 2 4 8 15 22 27 30 33 32 30 32 33 31 31 32 32 30 27 27 30 32 28 21 20 21 21 20 19 18 17 15
3 4 3 1 0 2 2 3 3 2 5 7 4 2 2 1 3 5 4 3 2 3 2 4 3 4 6 5 6 7 6 2 9 14 10 9 11 12 13 13 14 16 16 16 17 17 14 11 8 7 5 2 1 1 1 2 3 4 8 13 19 24 26 28 29 31 31 32 33 34 31 29 29 28 29 32 32 26 22 21 20 20 20 19 17 15
2 4 4 1 3 3 4 5 4 4 5 6 4 2 2 2 1 4 5 4 3 3 2 4 2 4 5 7 9 9 9 9 8 12 14 15 15 16 17 16 16 18 17 17 16 14 11 9 7 6 4 1 0 2 3 3 4 5 6 10 14 18 22 24 27 29 31 33 35 34 31 30 31 29 29 33 35 31 26 24 23 22 21 20 20 18
1 1 4 3 1 2 3 4 4 5 4 3 2 4 3 4 3 2 1 3 3 2 4 5 2 5 4 7 10 11 10 11 11 9 14 17 18 19 19 18 18 17 15 14 11 9 8 7 6 5 3 1 1 3 4 4 6 7 8 10 12 16 21 24 26 27 29 32 35 34 32 30 30 30 30 32 36 36 32 29 26 24 25 25 24 23
2 2 3 5 5 4 2 2 2 1 2 1 2 5 4 5 5 2 2 4 3 1 3 5 5 4 5 8 10 11 9 9 11 10 11 14 17 20 20 19 18 15 13 11 9 7 6 5 5 4 3 2 1 2 4 5 7 9 10 11 13 16 19 22 23 24 26 29 32 33 32 30 29 31 29 30 36 40 38 34 27 23 25 28 27 26
4 3 2 5 6 6 5 4 3 3 4 1 1 4 5 4 4 4 4 3 3 3 3 1 4 2 5 8 9 10 9 7 9 11 11 8 8 10 12 15 15 14 12 10 9 8 6 5 5 3 3 2 1 1 2 4 6 9 11 13 14 16 17 18 19 20 22 26 28 29 29 28 28 30 31 32 36 38 36 34 28 26 29 30 29 30
5 3 1 4 4 1 3 3 3 5 6 3 1 3 5 4 4 6 4 2 4 5 2 2 2 5 2 7 7 8 8 7 8 13 15 13 10 8 7 9 10 11 11 10 9 9 8 7 5 4 4 2 1 1 1 2 4 8 11 13 14 14 14 15 16 18 20 22 25 27 28 27 26 27 29 31 33 32 28 25 22 23 28 30 29 30
5 2 1 4 5 4 3 4 7 9 6 4 4 3 4 5 5 6 2 0 4 6 4 3 6 6 2 6 7 8 9 8 9 14 18 18 17 15 12 11 10 9 9 9 9 9 9 8 7 7 6 5 4 2 2 2 3 6 8 11 12 11 11 13 14 16 18 20 21 24 26 26 25 23 22 22 23 24 25 24 20 18 21 26 27 26
4 1 1 4 5 5 5 3 8 10 7 5 6 5 5 7 8 6 3 4 8 9 6 7 10 7 2 4 6 9 10 9 15 23 25 24 22 20 20 19 17 14 12 10 9 8 7 7 7 7 7 6 5 4 3 3 4 5 6 9 10 10 11 12 12 12 14 16 18 20 22 25 26 25 23 22 22 25 28 28 25 21 22 26 29 28
3 2 2 4 5 3 5 4 8 11 10 8 7 5 5 8 8 7 4 4 9 9 5 8 11 6 4 6 8 10 12 17 23 26 26 25 25 26 26 24 23 21 18 15 12 10 8 6 5 5 6 6 5 3 1 1 2 4 5 6 7 8 10 12 12 12 14 15 17 18 20 23 26 27 26 25 27 29 29 26 22 20 22 25 27 29
3 3 1 5 4 2 2 4 7 10 12 10 7 6 5 6 6 4 3 3 4 7 6 8 8 2 4 7 8 10 17 22 22 22 23 24 26 28 28 27 26 24 21 19 16 13 11 10 8 6 6 6 6 5 3 2 3 3 4 4 4 5 7 9 10 11 13 15 15 16 17 19 21 23 23 24 26 26 25 24 22 22 22 23 23 25
3 4 2 3 4 3 2 2 3 5 7 4 3 2 3 5 7 6 6 7 4 5 6 4 4 2 3 5 6 9 14 17 18 20 22 24 26 27 28 27 27 26 24 21 18 16 14 13 12 11 8 7 7 6 4 3 3 3 3 2 1 1 2 3 4 5 8 11 12 14 15 15 16 18 21 23 23 23 23 22 20 20 20 19 19 21
3 5 3 2 4 3 4 3 3 2 1 3 5 2 3 5 10 11 7 6 6 5 4 4 3 2 4 4 5 7 9 12 17 20 22 24 26 27 27 27 26 25 24 22 19 17 15 14 13 12 10 9 8 6 5 4 3 3 2 2 2 1 1 0 1 2 4 8 10 13 14 15 16 17 20 21 20 19 19 18 16 16 15 14 16 18
3 4 3 2 4 2 2 5 3 2 3 0 3 3 5 6 13 16 10 6 6 6 6 6 5 4 4 5 6 9 13 16 19 22 24 24 24 24 24 25 24 23 23 23 20 18 16 13 12 10 9 8 7 7 6 5 4 3 1 1 1 1 1 2 2 3 5 7 8 9 11 12 13 16 18 18 17 16 15 15 14 14 13 13 14 15
4 3 2 2 3 2 1 3 2 3 1 2 4 3 3 2 7 12 9 7 6 4 4 5 4 4 6 5 4 5 8 14 19 22 23 22 22 22 21 22 21 21 21 21 20 18 17 14 12 10 8 6 5 5 5 6 6 6 5 4 1 2 3 3 5 5 6 8 9 9 10 11 12 13 14 15 15 15 15 15 14 14 14 14 14 14
5 3 2 2 2 3 3 2 2 2 1 1 3 2 2 2 1 4 4 1 3 4 3 4 4 5 6 6 2 5 4 5 12 16 20 20 19 18 18 17 18 18 17 17 17 16 16 15 14 11 8 5 4 3 4 2 3 6 9 9 6 2 2 3 5 6 7 9 10 10 11 12 13 13 14 15 15 15 15 15 15 15 15 15 14 14
3 2 4 4 2 3 5 4 2 1 3 5 5 4 3 5 5 2 5 2 2 5 3 6 5 5 6 8 7 2 4 2 4 8 15 17 15 15 15 15 15 16 17 17 16 15 15 14 14 13 10 7 4 5 6 6 4 1 4 7 6 6 6 4 2 4 7 10 12 11 11 13 15 15 15 15 15 14 14 14 14 15 15 15 14 13
6 2 3 4 2 2 5 4 3 4 4 5 6 6 8 8 5 2 5 1 2 2 5 9 8 7 7 9 9 6 4 2 2 6 12 15 14 15 16 16 16 16 17 17 18 19 18 17 16 14 12 10 8 7 7 7 7 6 6 7 7 3 2 4 4 2 1 5 9 12 13 14 15 16 16 17 16 14 13 12 12 12 13 14 13 13
7 4 3 3 3 3 4 3 2 3 3 4 6 6 11 6 3 5 2 4 4 2 7 10 11 10 10 10 10 8 4 2 3 6 10 12 13 15 16 17 19 19 20 20 21 22 22 22 20 18 16 15 14 13 11 10 10 11 12 11 9 8 6 3 1 2 4 3 3 7 13 16 18 17 16 15 15 14 14 13 11 10 10 11 11 10
4 3 3 3 2 2 4 3 1 2 3 3 5 8 11 3 7 4 3 6 6 7 9 11 11 9 9 9 8 5 1 1 3 8 11 13 15 16 17 19 20 21 22 23 25 26 26 26 25 22 21 19 18 17 17 15 14 13 13 13 13 11 10 9 8 7 4 4 7 5 7 12 17 18 15 14 14 13 13 12 10 9 9 10 9 9
2 3 3 2 2 3 3 3 1 1 2 6 7 8 9 3 5 3 3 7 9 10 9 9 8 6 5 6 5 3 4 6 8 10 13 15 17 19 20 22 23 24 25 26 27 27 28 28 27 25 23 22 21 20 20 19 19 17 16 16 15 15 14 13 12 12 12 11 11 9 6 7 12 14 14 15 15 15 14 13 11 11 11 11 11 10
1 1 2 2 2 2 3 3 3 3 4 10 7 5 7 3 5 7 8 8 8 9 9 8 6 4 2 3 4 6 8 10 11 13 15 16 18 19 21 22 24 26 26 27 27 26 26 27 27 26 25 23 22 22 21 21 21 21 21 20 19 17 17 15 13 14 15 15 15 14 12 10 10 11 12 13 14 14 14 15 15 14 14 14 14 13
1 1 1 1 1 2 2 1 2 3 5 8 5 4 5 7 11 11 9 7 7 7 6 5 4 2 1 2 4 6 9 11 13 15 16 17 18 19 20 21 22 24 25 26 26 25 25 26 27 26 26 25 24 23 23 23 23 23 23 23 22 21 21 19 17 17 17 18 19 20 20 18 15 14 13 12 12 13 13 13 15 15 15 15 15 14
2 3 4 2 1 2 3 3 3 1 4 12 15 12 11 12 12 8 7 7 6 4 3 3 3 2 3 3 5 7 9 11 13 15 17 18 20 21 21 22 22 23 25 26 26 26 27 27 28 28 28 27 25 24 24 24 25 26 25 23 22 23 24 23 22 21 19 18 19 22 24 24 24 23 20 16 15 15 15 15 15 16 16 16 16 15
5 9 8 5 4 5 6 5 5 5 9 12 13 12 11 10 8 5 4 2 1 1 2 2 3 3 4 5 7 9 10 12 14 16 17 19 21 22 23 24 24 24 25 27 27 28 28 29 30 30 30 30 28 26 25 24 24 26 27 26 24 23 23 23 24 24 23 21 20 20 21 23 25 26 27 28 27 24 21 21 19 18 18 18 17 16
2 6 5 4 4 4 4 4 5 6 9 9 10 9 8 6 4 2 0 1 2 2 4 5 6 6 8 9 10 12 13 14 15 17 18 20 22 23 24 26 27 28 29 30 30 29 30 31 32 32 33 32 31 29 28 27 25 25 27 28 27 25 24 23 23 24 25 25 24 24 23 23 23 23 24 28 30 27 25 24 22 21 21 20 18 16
1 3 4 4 2 1 2 5 7 8 8 8 7 7 6 4 3 2 2 2 3 4 5 7 8 9 11 11 13 14 15 16 17 18 19 20 22 24 26 28 31 32 31 30 30 29 30 31 33 34 36 35 34 32 31 31 29 27 27 28 28 27 27 27 25 24 23 23 23 24 25 26 26 25 23 23 24 24 24 23 22 22 22 22 21 19
2 2 2 3 3 2 1 3 5 5 4 3 4 4 5 5 5 4 3 3 4 5 6 8 9 11 12 12 13 14 15 16 17 18 20 23 25 27 29 30 30 31 30 30 30 30 30 31 33 34 37 38 37 36 36 34 32 30 29 28 28 27 28 28 29 29 27 24 21 21 21 22 24 25 25 26 26 25 24 22 21 21 21 21 20 19
3 1 2 4 4 0 3 4 7 5 3 3 4 5 5 6 4 4 3 4 5 6 7 8 9 10 10 10 11 12 14 16 18 20 22 24 25 27 28 28 29 30 30 30 30 31 31 32 32 34 36 37 37 37 37 37 36 34 32 30 29 28 28 28 29 30 31 30 27 23 21 20 19 19 21 24 27 27 26 25 24 23 21 19 18 17
2 3 3 4 4 4 4 6 7 4 2 3 5 4 3 2 2 3 4 5 5 6 6 7 8 8 9 9 11 13 15 17 18 20 21 23 24 25 27 28 30 31 31 30 30 30 30 31 31 33 35 36 36 36 37 38 37 37 36 33 30 29 27 25 26 28 31 31 31 30 26 24 23 21 19 20 22 25 26 26 25 24 21 19 18 17
Wind_Direction
153 174 243 217 217 218 215 196 187 181 156 171 225 240 259 271 273 270 262 272 212 212 256 193 204 258 248 162 160 175 181 182 172 171 178 186 189 186 186 187 188 193 196 195 194 193 192 192 192 191 190 189 184 182 184 181 176 177 177 175 177 179 179 182 185 186 189 188 189 194 192 181 182 216 271 275 290 262 234 220 211 211 214 216 207 198
88 173 234 226 216 212 205 189 187 169 149 196 241 257 269 247 260 270 273 305 246 168 297 147 169 258 255 190 182 168 170 194 183 172 181 190 192 189 187 187 190 195 197 197 196 192 190 190 190 192 191 189 185 186 189 186 181 181 181 180 180 180 182 190 192 180 171 168 168 175 177 175 179 228 282 302 313 283 218 216 216 212 213 211 204 201
32 234 244 232 206 199 163 139 156 175 169 192 213 218 261 249 279 293 293 329 358 158 279 112 137 248 263 315 287 187 177 198 195 183 184 188 188 188 189 188 189 193 195 197 196 192 190 189 190 191 191 190 189 189 190 189 187 185 184 183 182 180 183 193 192 178 168 168 171 175 179 185 193 212 242 282 312 308 202 203 206 207 211 209 206 206
258 245 237 203 142 162 240 169 139 121 46 171 198 200 258 269 296 292 300 335 349 354 179 123 110 300 305 48 240 213 194 201 198 190 188 188 189 189 190 188 187 190 192 194 194 192 190 190 192 193 191 191 191 190 190 190 192 189 186 183 180 179 181 187 186 175 170 171 173 181 185 191 199 199 205 231 275 264 206 204 205 208 212 215 221 223
240 247 225 114 124 160 230 276 168 211 302 262 220 201 214 253 230 230 293 334 341 360 80 88 59 331 329 357 333 4 190 199 189 183 189 196 198 195 190 188 189 191 191 190 190 190 191 192 194 194 192 192 192 192 192 194 196 192 187 183 179 177 178 183 184 176 174 174 175 183 187 192 199 197 199 212 213 199 201 210 210 214 219 224 232 238
252 261 240 189 184 155 186 256 222 185 228 295 243 210 201 206 234 265 326 14 25 0 357 72 67 297 315 327 285 330 93 173 180 179 189 197 200 198 193 191 190 191 192 190 189 191 193 194 193 193 193 194 193 195 196 198 198 193 189 185 180 181 182 185 186 182 182 183 183 189 188 191 202 203 205 221 222 206 205 213 217 224 230 234 236 234
262 283 236 213 216 161 172 243 233 177 159 292 241 204 184 154 186 274 1 65 85 290 299 63 112 245 316 308 261 304 122 164 196 196 195 194 195 199 198 194 190 191 192 191 191 192 195 196 195 194 194 195 195 197 198 200 200 195 191 188 186 187 189 192 192 188 190 194 197 205 203 199 209 213 211 213 216 212 212 218 222 222 221 222 228 223
259 312 355 229 197 148 166 236 225 167 141 233 234 157 130 129 185 219 106 98 203 227 326 9 100 141 316 265 270 322 117 162 210 215 210 198 198 203 202 197 193 192 193 194 194 195 196 198 197 195 195 196 198 199 200 202 200 198 196 194 193 194 196 200 201 196 195 200 204 209 214 215 217 225 221 195 186 193 203 212 215 212 209 209 217 220
246 293 306 152 144 150 194 219 183 152 156 242 213 137 134 149 164 146 101 100 328 47 334 324 43 105 279 276 298 338 128 180 222 212 211 206 204 205 203 201 198 196 197 197 196 196 198 198 198 197 196 197 200 202 205 204 200 201 203 200 198 200 202 204 205 202 200 204 209 214 219 219 217 221 212 188 179 183 189 197 205 207 211 212 213 215
252 246 242 141 144 207 220 214 162 158 198 231 152 102 63 77 76 68 88 96 40 53 258 281 346 98 268 290 312 342 142 217 240 226 211 210 209 205 203 204 202 199 198 198 197 197 197 197 197 198 197 198 203 206 208 206 203 205 207 206 204 205 208 208 208 206 203 205 210 217 222 221 219 213 199 186 180 180 182 188 197 200 205 205 198 190
287 286 245 155 191 216 212 198 166 171 186 154 113 71 47 38 33 37 56 75 60 16 254 258 256 122 263 291 268 217 202 211 233 254 226 213 212 210 207 205 202 202 200 198 198 197 196 197 197 198 200 202 205 207 208 209 208 209 211 211 209 209 212 212 210 210 206 205 210 216 221 223 222 211 198 192 185 180 183 189 193 188 188 192 184 170
325 324 267 245 229 202 155 151 154 84 56 93 92 80 94 357 16 26 354 43 85 262 259 254 213 114 134 264 257 255 261 229 203 215 214 202 206 209 208 206 203 202 201 199 199 199 199 199 198 200 202 203 204 207 210 212 213 213 213 215 213 213 214 212 211 210 206 205 208 214 220 223 221 212 202 199 190 184 188 189 190 184 176 178 179 175
310 250 273 300 257 175 127 136 325 6 33 84 87 81 103 14 17 22 305 5 155 236 254 254 233 114 205 246 258 267 270 267 237 218 216 208 202 201 201 202 201 200 201 201 201 201 203 202 202 202 202 203 206 209 212 215 217 216 216 217 217 215 214 210 208 207 204 203 207 214 221 220 217 211 204 199 192 188 191 189 186 180 174 172 174 172
290 296 317 318 272 196 147 145 193 271 82 136 132 120 129 109 88 224 259 303 240 238 251 283 278 217 272 270 258 258 274 309 296 219 215 213 197 188 187 191 194 197 202 204 204 206 207 206 206 206 206 208 211 213 215 218 219 220 220 219 218 216 215 212 211 209 205 203 205 212 220 219 214 206 195 191 189 188 187 181 171 166 166 167 162 159
156 306 274 201 252 205 169 172 172 158 151 184 154 131 147 153 148 201 217 183 205 229 271 305 287 164 197 289 282 268 324 28 34 114 150 161 168 168 168 174 181 187 195 202 206 209 210 212 213 213 212 213 215 218 220 221 223 224 224 222 219 217 215 212 210 206 202 200 201 208 214 218 218 206 188 185 186 184 178 166 155 151 151 154 151 147
140 244 253 251 261 191 197 209 152 122 111 265 127 109 157 182 148 133 173 172 165 148 306 276 234 209 202 298 325 331 42 46 37 67 105 116 133 143 146 150 157 164 171 184 196 205 212 215 218 220 221 221 222 223 224 225 227 227 227 224 219 215 212 208 204 199 194 191 192 204 211 215 221 214 194 187 184 179 170 159 150 145 144 146 146 144
128 250 280 316 333 196 209 204 128 130 175 248 97 156 218 173 118 109 137 67 77 101 253 245 280 305 329 350 342 354 37 55 43 42 74 101 119 126 130 136 143 152 161 171 192 213 218 218 219 224 229 232 233 232 230 229 230 229 228 223 218 215 214 212 210 205 199 194 190 200 209 212 221 223 209 194 187 178 168 160 153 150 150 149 147 145
147 240 289 350 58 297 237 111 57 25 123 119 171 188 193 68 91 103 101 20 48 117 270 350 347 318 19 21 335 357 19 56 64 57 68 92 113 122 130 141 148 158 168 176 189 205 216 219 219 224 230 236 241 242 239 236 234 231 227 222 219 218 216 214 210 201 196 195 191 197 209 212 218 228 222 205 192 184 173 166 163 160 157 156 153 150
129 166 288 280 159 296 352 81 37 340 61 129 183 160 103 104 142 91 112 121 98 164 278 352 358 313 43 281 305 338 316 301 357 7 99 106 120 129 138 149 159 166 174 180 185 195 206 213 216 221 228 236 243 247 246 244 241 236 231 227 225 223 222 215 204 197 198 201 199 201 210 211 214 226 227 217 201 193 182 173 170 168 164 165 165 162
106 135 270 273 214 296 5 57 39 317 341 22 47 34 49 130 153 155 140 144 139 154 214 356 17 308 251 241 239 258 266 248 225 262 278 111 130 140 145 151 159 165 171 178 184 191 199 205 210 212 216 225 232 240 243 242 243 241 237 234 230 229 229 222 213 210 210 210 210 211 210 210 215 225 228 222 211 202 194 184 178 176 173 172 173 171
70 121 215 282 323 34 22 57 169 194 316 3 38 12 349 45 108 135 105 96 130 139 169 139 61 280 254 222 223 248 266 254 210 208 274 40 128 145 144 144 151 157 162 170 179 186 192 193 191 186 183 189 196 211 226 230 237 240 239 237 234 233 233 231 224 216 214 218 224 220 211 212 221 227 228 225 219 212 207 199 191 187 185 183 181 178
109 134 174 286 8 74 197 268 195 179 156 122 100 49 185 145 119 120 117 300 113 123 160 147 134 266 266 275 284 270 264 249 203 177 167 139 141 142 137 136 143 149 155 165 174 181 183 176 166 161 159 164 171 176 193 220 236 235 237 237 237 236 235 235 231 220 221 232 233 220 212 215 224 229 228 226 223 219 215 211 206 203 203 199 194 189
134 106 103 94 31 178 242 348 26 103 110 98 85 93 132 119 99 122 171 230 103 100 143 112 104 257 277 332 337 319 313 258 176 168 148 138 152 153 147 145 144 146 151 158 165 170 168 159 152 152 149 150 188 301 304 306 295 252 236 234 236 237 234 235 233 225 227 235 227 219 218 220 224 229 228 226 226 225 220 215 213 213 216 215 209 205
79 87 86 15 315 323 322 341 12 50 69 67 42 41 73 30 70 140 168 178 120 120 140 91 77 260 303 348 351 349 11 51 103 142 138 137 151 152 148 148 147 146 147 149 152 151 146 142 141 139 139 146 302 311 299 297 293 270 249 239 236 237 232 229 228 225 227 227 221 220 224 222 222 225 226 227 227 227 225 219 213 212 216 219 218 217
32 92 103 99 38 4 351 338 350 9 32 63 11 340 5 34 52 97 107 78 87 156 149 115 161 247 304 350 359 4 24 49 60 97 131 138 142 145 147 149 150 150 149 147 143 135 129 130 132 134 140 155 306 297 285 274 269 260 252 247 243 239 233 229 228 228 227 224 221 225 226 224 223 223 228 234 230 227 229 224 218 217 217 218 221 221
112 118 114 129 154 176 182 219 232 332 16 23 359 354 10 34 42 67 86 74 92 172 103 115 177 235 329 355 6 9 15 25 31 58 108 132 140 146 149 150 154 155 151 149 144 140 142 142 146 156 159 160 211 277 283 274 263 253 243 241 243 242 238 238 237 234 230 227 227 228 225 223 225 224 230 240 233 226 227 224 221 227 228 224 225 225
99 62 84 131 148 178 183 193 196 133 87 66 356 3 360 5 45 80 92 100 154 139 70 106 167 112 1 350 359 2 7 13 13 32 57 86 121 139 145 146 149 147 142 140 136 137 143 142 148 156 146 131 107 80 293 282 270 260 252 245 245 244 244 244 240 234 230 229 228 225 222 224 229 227 229 235 230 224 225 226 225 231 235 232 230 230
93 34 33 99 76 160 170 128 96 92 93 105 94 15 347 350 53 83 95 127 137 120 88 273 135 100 353 328 346 346 354 10 10 21 37 50 64 83 112 131 135 133 132 131 129 133 138 140 149 153 151 163 165 26 341 318 284 265 261 260 258 254 251 247 238 230 227 228 228 227 226 228 228 224 222 224 222 219 224 231 231 233 238 237 235 234
113 73 145 87 48 23 53 98 101 95 93 85 73 54 23 30 68 93 108 70 110 124 153 152 103 94 332 322 341 341 346 4 20 32 47 58 66 77 86 91 99 104 109 115 121 133 142 146 154 158 162 177 198 232 269 301 289 269 262 264 266 266 263 253 242 233 232 235 236 228 221 218 213 210 210 213 217 221 228 238 244 248 251 243 236 236
111 75 88 92 66 30 19 86 113 104 98 72 50 46 64 73 75 74 64 67 87 100 120 109 90 72 357 322 342 350 357 27 46 48 51 53 58 70 75 74 74 75 79 87 98 114 130 138 148 157 162 166 173 198 223 233 251 255 255 259 263 266 264 254 245 241 239 240 237 226 217 215 214 216 220 222 230 241 245 246 248 251 250 241 233 231
87 150 183 93 80 13 355 47 95 97 97 82 52 28 55 76 63 45 38 64 81 89 102 96 85 60 359 353 2 10 31 48 50 47 48 48 52 63 68 65 65 67 69 73 79 89 102 109 122 141 151 151 147 143 165 236 267 266 257 256 258 258 255 247 243 247 247 244 242 237 230 225 226 231 232 229 236 246 247 244 242 239 236 232 228 227
68 118 113 75 103 219 331 82 104 94 86 74 43 13 26 62 70 56 32 35 94 126 118 88 87 76 321 348 8 30 47 51 47 44 46 48 51 59 62 61 60 60 60 63 69 77 82 84 86 94 116 133 133 119 96 49 5 331 302 278 261 250 241 239 242 244 245 244 245 244 238 233 236 240 237 234 238 243 243 241 239 236 233 232 231 230
90 116 113 90 125 214 290 106 128 90 76 53 339 4 76 98 108 93 49 29 49 116 122 110 130 197 313 357 27 39 46 51 49 47 48 49 53 57 59 57 55 53 51 52 54 61 66 70 75 81 93 112 120 115 99 84 71 44 18 8 346 267 230 241 244 236 234 233 233 236 234 231 234 237 235 234 236 237 239 239 234 231 233 234 233 233
66 103 129 124 129 208 282 4 55 70 130 254 276 233 156 128 111 95 63 28 30 56 100 117 109 65 15 27 56 57 54 56 53 52 53 52 52 55 55 53 49 47 47 45 45 48 49 52 64 76 86 100 110 111 108 113 108 90 77 69 60 56 51 348 236 203 210 215 217 222 223 223 226 230 230 230 231 230 229 224 219 219 222 220 220 222
67 86 119 102 107 166 310 36 59 228 212 255 1 68 116 115 103 95 77 37 35 50 72 74 57 36 35 58 86 81 69 62 56 52 51 49 47 48 48 46 44 43 42 41 41 42 40 37 45 56 67 82 97 104 112 124 113 87 94 141 165 191 162 169 202 202 190 190 195 197 200 205 213 219 221 218 216 212 206 203 203 205 205 203 205 208
119 112 129 103 102 144 79 66 143 206 163 47 2 42 118 116 85 84 64 18 10 25 61 74 55 29 42 64 111 113 72 56 52 48 45 43 41 39 39 38 37 36 35 33 34 36 35 35 34 31 29 35 54 74 92 113 109 83 62 59 66 247 239 213 209 210 201 193 189 187 186 190 197 202 200 195 193 194 195 197 198 197 198 199 201 204
132 125 129 120 131 142 114 88 104 96 108 224 282 278 201 259 303 103 99 20 344 359 35 93 69 39 48 49 64 201 218 24 35 32 30 34 35 30 28 27 23 20 18 18 20 23 27 30 29 23 12 357 349 348 351 27 97 80 58 51 59 65 335 273 231 218 214 207 200 195 191 193 199 199 195 192 192 193 195 198 201 203 206 207 208 213
115 155 174 171 189 113 103 97 91 123 217 223 237 264 298 303 276 167 118 113 343 3 60 119 100 63 60 41 31 170 195 14 3 357 8 17 19 15 11 8 4 0 357 355 354 355 360 5 9 8 4 353 325 301 301 304 304 2 35 22 33 68 55 19 299 233 226 217 212 208 201 198 201 203 203 200 197 198 206 214 218 218 218 218 221 224
41 48 117 130 151 114 118 136 165 189 224 240 241 276 318 309 267 132 88 107 285 357 105 116 97 78 77 59 48 68 90 67 279 315 350 359 358 357 353 348 348 347 344 343 341 338 338 338 338 339 340 340 333 315 298 290 283 264 268 306 320 325 27 47 65 80 185 220 220 214 207 204 205 206 209 209 208 213 219 221 218 217 218 220 222 224
22 21 56 112 161 150 136 145 168 192 234 250 238 292 330 320 175 115 95 241 235 141 116 106 90 77 73 69 62 65 87 159 251 310 338 340 337 338 335 332 333 332 329 330 328 326 325 324 320 317 315 319 321 318 312 301 285 267 262 270 279 280 282 272 192 96 63 24 302 221 207 210 212 213 215 218 223 226 221 214 211 212 215 215 215 220
15 14 43 116 122 82 110 112 63 243 258 278 277 325 349 31 148 144 220 210 168 137 117 96 87 75 60 58 61 63 89 241 303 315 323 325 322 321 318 317 318 316 316 317 315 315 315 313 312 310 307 305 303 301 301 300 294 284 275 270 264 261 266 273 271 262 260 309 316 286 222 215 215 213 214 217 220 218 215 216 219 218 217 216 215 219
7 360 16 63 48 41 101 110 86 221 301 328 319 340 9 74 179 205 184 153 134 130 118 95 89 82 53 39 38 15 327 322 317 311 313 314 310 309 308 307 306 305 305 305 305 306 306 304 303 302 299 296 294 292 291 291 290 287 283 279 272 263 261 270 277 272 266 271 275 267 249 228 216 210 206 205 206 208 211 217 219 218 222 227 228 234
46 49 31 27 19 46 78 74 102 157 322 333 322 334 9 54 165 148 129 128 122 119 117 110 104 90 49 355 339 326 315 314 311 308 308 306 302 302 299 298 299 299 298 300 300 301 301 300 298 296 293 290 288 286 285 284 283 281 278 277 276 269 261 260 263 264 264 267 264 255 247 240 227 218 213 208 207 209 212 216 216 215 219 225 231 240
7 66 150 277 340 69 95 76 143 207 321 5 61 98 71 104 134 130 119 123 128 124 125 133 138 141 242 283 302 305 304 306 307 307 307 306 305 304 301 299 298 296 295 296 295 296 297 296 295 294 291 289 285 283 282 281 280 277 273 272 273 270 264 261 260 256 253 256 259 257 251 245 237 229 224 222 223 222 219 216 215 215 218 222 229 236
34 106 114 98 35 64 97 116 141 165 41 64 87 104 105 111 121 119 113 124 137 147 164 174 179 206 241 275 291 294 298 302 303 304 305 305 305 305 304 302 300 298 297 295 294 295 294 293 292 290 288 286 285 283 280 279 279 277 272 269 271 271 268 266 265 259 253 250 254 258 256 252 246 239 232 231 238 243 242 238 232 225 224 227 232 240
108 116 105 99 107 82 79 103 122 105 87 86 93 103 108 111 115 110 108 123 159 220 246 270 285 286 295 302 300 300 302 302 302 302 303 303 303 302 302 300 299 299 299 298 297 296 294 292 290 288 285 284 283 282 279 275 275 276 273 269 267 267 266 266 265 262 257 252 249 251 252 251 250 249 244 244 249 254 254 250 244 237 234 237 241 247
108 118 98 104 134 117 103 150 164 136 121 115 113 118 122 125 131 131 106 309 302 284 282 292 298 300 306 309 307 306 306 304 303 303 301 301 301 301 301 301 301 301 301 299 298 296 293 290 288 286 285 282 279 279 278 274 270 270 270 268 265 262 261 261 260 259 257 254 251 251 251 249 250 252 248 245 246 249 249 247 246 245 244 247 250 255
20 79 89 104 118 111 144 168 168 155 144 133 124 132 140 143 161 196 238 271 270 266 276 290 300 303 305 306 306 306 305 303 302 301 302 303 303 303 303 303 303 302 301 300 298 295 292 288 285 283 282 280 278 278 277 274 271 268 267 266 265 263 261 259 257 256 254 252 251 251 251 250 249 250 248 242 239 239 241 242 243 244 244 246 251 258
336 30 112 107 76 33 19 161 153 154 171 168 151 158 165 165 181 201 208 231 252 265 281 294 300 302 303 302 301 300 299 298 298 300 302 303 303 303 303 303 303 303 301 299 298 295 292 289 286 284 281 280 279 278 276 274 272 270 268 266 265 265 264 260 257 256 255 252 249 245 244 245 242 240 241 241 239 237 235 234 235 237 239 242 249 254
23 109 126 90 85 264 249 176 152 160 226 220 179 172 171 169 184 211 231 257 271 278 288 295 297 299 300 298 296 295 295 297 300 302 302 302 303 303 304 305 305 304 302 301 298 294 291 288 286 283 281 279 278 277 275 273 271 269 269 267 265 266 267 264 262 259 256 254 251 247 244 245 243 236 231 233 235 235 234 233 234 236 239 242 245 244
59 151 152 122 143 199 210 174 165 181 212 167 154 168 184 191 248 274 281 291 292 288 290 295 298 299 299 300 301 303 305 306 307 307 306 307 307 308 308 309 309 308 307 306 301 295 290 287 286 284 281 280 279 277 273 270 267 266 265 265 264 263 261 260 261 261 258 255 253 251 249 249 251 248 241 234 232 233 234 234 234 235 237 239 238 237